Location: Blackrock Ranger Station
(36.0936°N, 118.2611°W)
Time: 07:57:25
(UTC-07:00)

AO-7 - Pass Details

Date: 18 February 2026
Orbit: 1440 x 1458 km, 102.0° (Epoch: 15 March)

Event Time Altitude Azimuth Distance (km) Brightness Sun altitude
Rises 18:36:34 0° 194° (SSW) 4,512 ? -12.6°
Reaches altitude 10° 18:39:49 10° 205° (SSW) 3,538 ? -13.2°
Maximum altitude 18:46:42 29° 263° (W) 2,377 ? -14.6°
Drops below altitude 10° 18:53:40 10° 320° (NW) 3,560 ? -16.0°
Sets 18:56:59 0° 332° (NNW) 4,545 ? -16.7°
